Content
SEND FEEDBACK

Daily
Averages
Monthly
Summary
United States of America

BALSAM LAKE, NEW YORK


Home > North America > United States > New York
Elevation: 2600 feet     Latitude: 42 02N     Longitude: 074 36W

WEATHER
 
SELECT A DAY
Number of Records: 450,428;   Date Range: 1/1/95 - 10/19/14
 
SHARE

PRINT THIS DATA

[ ← Previous Day ]
WEATHER ALMANAC - JANUARY 23, 2013
[ Next Day → ]
[ °C ]   °F
Weather ElementAverageHighLow
Temperature3.3 °F10.4 °F (12:55 pm)-4 °F (7:15 am)
Dewpoint-6.7 °F-2.2 °F (10:35 am)-11.2 °F (10:55 pm)
Humidity64 %85 % (10:35 pm)44 % (2:55 pm)
Barometer30.06 in30.10 in (10:35 am)30.03 in (12:35 am)
Wind Speed6.7 mph18.4 mph (12:15 pm)
Wind Gust26.5 mph (12:35 pm)
Weather ElementAverage
Visibility10 mi
Wind DirectionSW (220.7 °)

Weather ElementTotal
Precipitation---
Heating Degree Days61.8 (Base 65)
Averaged from 71 records on January 23, 2013
WEATHER CONDITIONS BREAKOUT
WIND DIRECTION BREAKOUT
WEATHER BY HOUR - JANUARY 23, 2013
[ °C ]   °F
Local TimeTemperatureDewpointHumidityBarometerVisibilityWind DirectionWind SpeedGust SpeedPrecipitationEventsConditions
12:35 AM1.4 °F-9.4 °F61 %30.03 in10.0 miWest (270°)8.1 mphClear
12:55 AM1.4 °F-7.6 °F66 %30.03 in10.0 miWest (270°)6.9 mphClear
1:15 AM1.4 °F-9.4 °F61 %30.04 in10.0 miWSW (250°)6.9 mphClear
1:35 AM1.4 °F-7.6 °F66 %30.04 in10.0 miWSW (250°)4.6 mphClear
1:55 AM1.4 °F-7.6 °F66 %30.04 in10.0 miWest (260°)4.6 mphClear
2:15 AM1.4 °F-7.6 °F66 %30.04 in10.0 miWest (260°)4.6 mphClear
2:35 AM1.4 °F-7.6 °F66 %30.05 in10.0 miWest (260°)6.9 mphClear
2:55 AM-0.4 °F-9.4 °F66 %30.05 in10.0 miWest (260°)6.9 mphClear
3:15 AM-0.4 °F-7.6 °F72 %30.05 in10.0 miWSW (250°)5.8 mphClear
3:35 AM-0.4 °F-9.4 °F66 %30.05 in10.0 miWest (260°)5.8 mphClear
3:55 AM-0.4 °F-7.6 °F72 %30.05 in10.0 miWest (260°)5.8 mphClear
4:15 AM-0.4 °F-7.6 °F72 %30.05 in10.0 miWest (260°)4.6 mphClear
4:35 AM-0.4 °F-7.6 °F72 %30.05 in10.0 miWest (260°)4.6 mphClear
4:55 AM-0.4 °F-9.4 °F66 %30.06 in10.0 miWSW (250°)4.6 mphClear
5:15 AM-2.2 °F-7.6 °F78 %30.06 in10.0 miWest (260°)3.5 mphClear
5:35 AM-2.2 °F-9.4 °F71 %30.06 in10.0 miWSW (250°)5.8 mphClear
5:55 AM-2.2 °F-7.6 °F78 %30.06 in10.0 miWest (260°)4.6 mphClear
6:15 AM-2.2 °F-9.4 °F71 %30.06 in10.0 miWest (260°)4.6 mphClear
6:35 AM-2.2 °F-9.4 °F71 %30.06 in10.0 miWest (260°)3.5 mphClear
6:55 AM-2.2 °F-7.6 °F78 %30.07 in10.0 miWest (260°)3.5 mphClear
7:15 AM-4.0 °F-9.4 °F78 %30.07 in10.0 miWest (260°)5.8 mphClear
7:35 AM-2.2 °F-7.6 °F78 %30.07 in10.0 miWSW (250°)5.8 mphClear
7:55 AM-2.2 °F-7.6 °F78 %30.08 in10.0 miWSW (250°)5.8 mphClear
8:15 AM-0.4 °F-5.8 °F78 %30.08 in10.0 miWest (270°)4.6 mphClear
8:35 AM-0.4 °F-5.8 °F78 %30.08 in10.0 miWest (280°)8.1 mphClear
8:55 AM1.4 °F-4.0 °F78 %30.08 in10.0 miWest (270°)9.2 mphClear
9:15 AM3.2 °F-5.8 °F66 %30.09 in10.0 miWest (280°)10.4 mphClear
9:35 AM3.2 °F-4.0 °F72 %30.09 in10.0 miWNW (300°)12.7 mphClear
9:55 AM3.2 °F-4.0 °F72 %30.09 in10.0 miWest (270°)13.8 mph18.4 mphPartly Cloudy
10:15 AM5.0 °F-4.0 °F66 %30.09 in10.0 miWest (280°)11.5 mph19.6 mphScattered Clouds
10:35 AM6.8 °F-2.2 °F67 %30.10 in10.0 miWest (280°)11.5 mph20.7 mphScattered Clouds
10:55 AM6.8 °F-2.2 °F67 %30.09 in10.0 miWest (270°)13.8 mph20.7 mphScattered Clouds
11:15 AM8.6 °F-4.0 °F57 %30.09 in10.0 miWNW (290°)13.8 mph23.0 mphScattered Clouds
11:35 AM8.6 °F-5.8 °F52 %30.07 in10.0 miWNW (290°)11.5 mph20.7 mphPartly Cloudy
11:55 AM8.6 °F-5.8 °F52 %30.07 in10.0 miWNW (290°)13.8 mph24.2 mphPartly Cloudy
12:15 PM8.6 °F-7.6 °F48 %30.06 in10.0 miNW (310°)18.4 mph21.9 mphScattered Clouds
12:35 PM8.6 °F-5.8 °F52 %30.05 in10.0 miWNW (290°)10.4 mph26.5 mphMostly Cloudy
12:55 PM10.4 °F-2.2 °F57 %30.04 in10.0 miWest (270°)13.8 mph19.6 mphOvercast
1:15 PM8.6 °F-7.6 °F48 %30.03 in10.0 miWNW (290°)17.3 mph20.7 mphOvercast
1:35 PM10.4 °F-4.0 °F52 %30.03 in10.0 miWNW (300°)15.0 mph20.7 mphOvercast
1:55 PM10.4 °F-5.8 °F48 %30.03 in10.0 miWNW (290°)11.5 mph17.3 mphOvercast
2:15 PM10.4 °F-5.8 °F48 %30.04 in10.0 miWNW (300°)10.4 mphOvercast
2:35 PM10.4 °F-5.8 °F48 %30.03 in10.0 miWNW (300°)16.1 mph23.0 mphOvercast
2:55 PM10.4 °F-7.6 °F44 %30.04 in10.0 miWNW (300°)9.2 mphOvercast
3:15 PM10.4 °F-7.6 °F44 %30.05 in10.0 miNW (310°)11.5 mph16.1 mphMostly Cloudy
3:35 PM10.4 °F-5.8 °F48 %30.05 in10.0 miWNW (300°)11.5 mph18.4 mphMostly Cloudy
3:55 PM8.6 °F-2.2 °F62 %30.05 in8.0 miNW (310°)9.2 mphOvercast
4:15 PM8.6 °F-2.2 °F62 %30.04 in10.0 miWNW (300°)6.9 mphMostly Cloudy
4:35 PM8.6 °F-4.0 °F57 %30.04 in10.0 miWNW (290°)11.5 mphMostly Cloudy
4:55 PM8.6 °F-5.8 °F52 %30.05 in10.0 miWNW (290°)4.6 mphOvercast
5:15 PM8.6 °F-5.8 °F52 %30.05 in10.0 miWest (270°)6.9 mphMostly Cloudy
5:35 PM8.6 °F-5.8 °F52 %30.05 in10.0 miWest (280°)8.1 mphMostly Cloudy
5:55 PM6.8 °F-7.6 °F52 %30.06 in10.0 miWest (280°)6.9 mphScattered Clouds
6:15 PM6.8 °F-7.6 °F52 %30.06 in10.0 miWest (270°)5.8 mphPartly Cloudy
6:35 PM6.8 °F-7.6 °F52 %30.07 in10.0 miWest (270°)5.8 mphClear
6:55 PM5.0 °F-7.6 °F56 %30.06 in10.0 miWest (280°)3.5 mphClear
7:15 PM5.0 °F-7.6 °F56 %30.06 in10.0 miCalmClear
7:35 PM3.2 °F-7.6 °F61 %30.06 in10.0 miCalmClear
7:55 PM3.2 °F-7.6 °F61 %30.05 in10.0 miWest (270°)3.5 mphClear
8:15 PM3.2 °F-7.6 °F61 %30.06 in10.0 miCalmClear
8:35 PM1.4 °F-7.6 °F66 %30.05 in10.0 miCalmClear
8:55 PM1.4 °F-5.8 °F72 %30.05 in10.0 miCalmClear
9:15 PM1.4 °F-7.6 °F66 %30.05 in10.0 miCalmClear
9:35 PM-0.4 °F-7.6 °F72 %30.05 in10.0 miCalmClear
9:55 PM1.4 °F-5.8 °F72 %30.05 in10.0 miCalmClear
10:15 PM-0.4 °F-7.6 °F72 %30.05 in10.0 miCalmClear
10:35 PM-0.4 °F-4.0 °F85 %30.05 in10.0 miCalmClear
10:55 PM-2.2 °F-11.2 °F66 %30.05 in10.0 miCalmClear
11:15 PM-2.2 °F-7.6 °F78 %30.05 in10.0 miCalmClear
11:35 PM-2.2 °F-7.6 °F78 %30.05 in10.0 miCalmClear
11:55 PM-2.2 °F-9.4 °F71 %30.04 in10.0 miCalmClear
Hourly data recorded from KMSV, located miles away from Balsam Lake, New York







STORIES FROM OUR PARTNERS